User: anonymous   Login
Location: Waldport
(44.4270°N, 124.0680°W)
Time: 04:08:44
(UTC-08:00)
Language:

Cosmos 1023 Rocket - Orbit

View from above orbital plane
View from above orbital plane
View from above satellite
View from above satellite

Ground track
Ground track

The orbit data is extracted from the following two-line orbital elements,

1 10962U 78063B   16042.42898759  .00000202  00000-0  70628-4 0  9998
2 10962  74.0789  46.6741 0023888  75.3599 285.0203 14.40995458975033
Epoch (UTC): 11 February 2016 10:17:44
Eccentricity: 0.0023888
inclination: 74.0789°
perigee height: 738 km
apogee height: 772 km
right ascension of ascending node: 46.6741°
argument of perigee: 75.3599°
revolutions per day: 14.40995458
mean anomaly at epoch: 285.0203°
orbit number at epoch: 97503

The dashed part of the orbit path shows where the satellite is in the earth's shadow,  

DLR